Location: Newark
(48.5178°N, 4.2361°E)
Time: 23:34:55
(UTC+00:00)

Envisat - Pass Details

Date: 14 March 2021
Orbit: 764 x 766 km, 98.1° (Epoch: 12 April)

Event Time Altitude Azimuth Distance (km) Brightness Sun altitude
Rises 04:48:38 0° 20° (NNE) 3,244 6.7 -12.3°
Reaches altitude 10° 04:51:07 10° 28° (NNE) 2,312 6.0 -11.9°
Maximum altitude 04:55:51 38° 97° (E) 1,159 4.6 -11.1°
Drops below altitude 10° 05:00:33 10° 165° (SSE) 2,295 5.6 -10.4°
Sets 05:03:00 0° 173° (S) 3,216 6.2 -10.0°
